Regional Weather Roundup
Issued by NWS

Home | Current Version | Previous Version | Text Only | Print | Product List | Glossary On
Versions: 1 2 3 4 5 6 7 8 9 10 11 12 13 14 15 16 17 18 19 20 21 22 23 24 25 26 27 28 29 30 31 32 33 34 35 36 37 38 39 40 41 42 43 44 45 46 47 48 49 50
322
ASUS44 KLIX 160010
RWRLA
LOUISIANA WEATHER ROUNDUP
NATIONAL WEATHER SERVICE NEW ORLEANS LA
700 PM CDT MON SEP 15 2014

NOTE: "FAIR" INDICATES FEW OR NO CLOUDS BELOW 12,000 FEET WITH NO
      SIGNIFICANT WEATHER AND/OR OBSTRUCTIONS TO VISIBILITY.
      SKY/WX - SKY CONDITION AND SIGNIFICANT WEATHER.
      TMP - AIR TEMPERATURE.    DP   - DEWPOINT TEMPERATURE.
      RH  - RELATIVE HUMIDITY.  PRES - PRESSURE.
      HX  - HEAT INDEX.         WCI  - WIND CHILL INDEX.

*  THESE STATIONS ARE NOT NWS OR FAA STATIONS AND ARE NOT UNDER
   NWS QUALITY CONTROL.

LAZ040-048-061>063-065-066-069-160100-
SOUTHEAST LOUISIANA

CITY           SKY/WX    TMP DP  RH WIND       PRES   REMARKS
N.O. AUDUBON     N/A     82  75  81 MISG        N/A
6HR MIN TEMP:  79; 6HR MAX TEMP:  93;

N.O. INTL ARPT CLOUDY    79  76  90 SE3       30.06R
6HR MIN TEMP:  76; 6HR MAX TEMP:  90; 6HR PCP:  1.66;

N.O. LAKEFRONT CLOUDY    81  74  79 S5        30.06S
6HR MIN TEMP:  81; 6HR MAX TEMP:  90; 6HR PCP: TRACE;

N.O. DOWNTOWN* FAIR      84  72  65 S6        30.06S
6HR MIN TEMP:  81; 6HR MAX TEMP:  90;

SLIDELL        CLOUDY    82  76  81 SW3       30.05R
6HR MIN TEMP:  82; 6HR MAX TEMP:  90; 6HR PCP: TRACE;

BATON ROUGE    PTCLDY    77  73  87 E5        30.06S
6HR MIN TEMP:  77; 6HR MAX TEMP:  92; 6HR PCP:  0.42;

BOOTHVILLE     CLOUDY    83  75  77 SW3       30.07R
6HR MIN TEMP:  78; 6HR MAX TEMP:  85; 6HR PCP:  0.38;

BELLE CHASSE   CLOUDY    81  74  79 CALM      30.05S
6HR MIN TEMP:  81; 6HR MAX TEMP:  91;

BOGALUSA*      FAIR      86  75  68 CALM      30.06R HX  95
6HR MIN TEMP:  86; 6HR MAX TEMP:  93;

GALLIANO*      NOT AVBL
NEW ROADS*     MOCLDY    82  71  68 S10G18    30.05R
6HR MIN TEMP:  82; 6HR MAX TEMP:  91;

GONZALES*      FAIR      77  77 100 CALM      30.06R
6HR MIN TEMP:  77; 6HR MAX TEMP:  91; 6HR PCP:  0.21;

HAMMOND*       MOCLDY    82  73  74 S5        30.07R
HOUMA*         PTCLDY    81  73  78 W7        30.06R
PORT FOURCHON* PTCLDY    84  75  74 SW8       30.09S

$$

LAZ041-044-053-054-160100-
SOUTHWEST LOUISIANA

CITY           SKY/WX    TMP DP  RH WIND       PRES   REMARKS
LAKE CHARLES   LGT RAIN  83  76  79 S8        30.03S
6HR MIN TEMP:  83; 6HR MAX TEMP:  92; 6HR PCP: TRACE;

LAFAYETTE      LGT RAIN  75  74  96 S8        30.05F
6HR MIN TEMP:  75; 6HR MAX TEMP:  92; 6HR PCP:  0.12;

PATTERSON      MOCLDY    79  77  94 SE5       30.09R
6HR MIN TEMP:  77; 6HR MAX TEMP:  90;

SALT POINT       N/A     86  77  74 CALM      30.05R HX  97
6HR MIN TEMP:  86; 6HR MAX TEMP:  92;

NEW IBERIA     MOCLDY    77  74  90 W3        30.07R
6HR MIN TEMP:  76; 6HR MAX TEMP:  93; 6HR PCP:  0.03;

CHENAULT AIRPK NOT AVBL

$$

LAZ027-028-160100-
CENTRAL LOUISIANA

CITY           SKY/WX    TMP DP  RH WIND       PRES   REMARKS
FORT POLK      CLOUDY    83  74  74 NE3       30.05S
6HR MIN TEMP:  83; 6HR MAX TEMP:  89;

ALEXANDRIA INT MOCLDY    83  76  79 N6        30.04R
6HR MIN TEMP:  83; 6HR MAX TEMP:  90;

ALEXANDRIA     MOCLDY    83  76  79 CALM      30.06R
6HR MIN TEMP:  83; 6HR MAX TEMP:  93;


$$

LAZ001-002-160100-
NORTHWEST LOUISIANA

CITY           SKY/WX    TMP DP  RH WIND       PRES   REMARKS
SHREVEPORT     CLOUDY    83  70  64 E3        30.08R
6HR MIN TEMP:  82; 6HR MAX TEMP:  87;

BARKSDALE AFB  CLOUDY    80  70  70 E3        30.08F
6HR MIN TEMP:  80; 6HR MAX TEMP:  86;

DTN SHREVEPORT CLOUDY    80  71  74 CALM      30.08S
6HR MIN TEMP:  80; 6HR MAX TEMP:  85;


$$

LAZ014-016-160100-
NORTHEAST LOUISIANA

CITY           SKY/WX    TMP DP  RH WIND       PRES   REMARKS
MONROE         CLOUDY    80  72  76 CALM      30.08F
6HR MIN TEMP:  80; 6HR MAX TEMP:  88;

TALLULAH       MOCLDY    81  71  71 N3        30.07S
6HR MIN TEMP:  81; 6HR MAX TEMP:  91;


$$




USA.gov is the U.S. government's official web portal to all federal, state and local government web resources and services.